Year,Month,Day,Hour,Minute,Value (Times are PST for temperature in C)
2021,06,10,00,00,11.50
2021,06,10,00,01,11.50
2021,06,10,00,02,11.50
2021,06,10,00,03,11.50
2021,06,10,00,04,11.50
2021,06,10,00,05,11.50
2021,06,10,00,06,11.50
2021,06,10,00,07,11.50
2021,06,10,00,08,11.50
2021,06,10,00,09,11.40
2021,06,10,00,10,11.40
2021,06,10,00,11,11.40
2021,06,10,00,12,11.40
2021,06,10,00,13,11.40
2021,06,10,00,14,11.40
2021,06,10,00,15,11.30
2021,06,10,00,16,11.30
2021,06,10,00,17,11.30
2021,06,10,00,18,11.30
2021,06,10,00,19,11.30
2021,06,10,00,20,11.30
2021,06,10,00,21,11.30
2021,06,10,00,22,11.30
2021,06,10,00,23,11.30
2021,06,10,00,24,11.30
2021,06,10,00,25,11.30
2021,06,10,00,26,11.30
2021,06,10,00,27,11.30
2021,06,10,00,28,11.30
2021,06,10,00,29,11.30
2021,06,10,00,30,11.20
2021,06,10,00,31,11.20
2021,06,10,00,32,11.20
2021,06,10,00,33,11.20
2021,06,10,00,34,11.20
2021,06,10,00,35,11.20
2021,06,10,00,36,11.20
2021,06,10,00,37,11.20
2021,06,10,00,38,11.20
2021,06,10,00,39,11.20
2021,06,10,00,40,11.20
2021,06,10,00,41,11.20
2021,06,10,00,42,11.20
2021,06,10,00,43,11.20
2021,06,10,00,44,11.20
2021,06,10,00,45,11.20
2021,06,10,00,46,11.20
2021,06,10,00,47,11.20
2021,06,10,00,48,11.20
2021,06,10,00,49,11.20
2021,06,10,00,50,11.20
2021,06,10,00,51,11.20
2021,06,10,00,52,11.20
2021,06,10,00,53,11.20
2021,06,10,00,54,11.30
2021,06,10,00,55,11.30
2021,06,10,00,56,11.30
2021,06,10,00,57,11.30
2021,06,10,00,58,11.30
2021,06,10,00,59,11.30
2021,06,10,01,00,11.20
2021,06,10,01,01,11.20
2021,06,10,01,02,11.20
2021,06,10,01,03,11.20
2021,06,10,01,04,11.20
2021,06,10,01,05,11.20
2021,06,10,01,06,11.20
2021,06,10,01,07,11.20
2021,06,10,01,08,11.20
2021,06,10,01,09,11.20
2021,06,10,01,10,11.20
2021,06,10,01,11,11.20
2021,06,10,01,12,11.20
2021,06,10,01,13,11.20
2021,06,10,01,14,11.20
2021,06,10,01,15,11.20
2021,06,10,01,16,11.20
2021,06,10,01,17,11.20
2021,06,10,01,18,11.20
2021,06,10,01,19,11.20
2021,06,10,01,20,11.10
2021,06,10,01,21,11.10
2021,06,10,01,22,11.10
2021,06,10,01,23,11.10
2021,06,10,01,24,11.10
2021,06,10,01,25,11.10
2021,06,10,01,26,11.10
2021,06,10,01,27,11.00
2021,06,10,01,28,11.00
2021,06,10,01,29,11.00
2021,06,10,01,30,10.90
2021,06,10,01,31,10.90
2021,06,10,01,32,10.90
2021,06,10,01,33,10.90
2021,06,10,01,34,10.90
2021,06,10,01,35,10.90
2021,06,10,01,36,10.80
2021,06,10,01,37,10.80
2021,06,10,01,38,10.80
2021,06,10,01,39,10.80
2021,06,10,01,40,10.80
2021,06,10,01,41,10.80
2021,06,10,01,42,10.80
2021,06,10,01,43,10.70
2021,06,10,01,44,10.70
2021,06,10,01,45,10.70
2021,06,10,01,46,10.70
2021,06,10,01,47,10.70
2021,06,10,01,48,10.70
2021,06,10,01,49,10.70
2021,06,10,01,50,10.60
2021,06,10,01,51,10.60
2021,06,10,01,52,10.60
2021,06,10,01,53,10.60
2021,06,10,01,54,10.50
2021,06,10,01,55,10.50
2021,06,10,01,56,10.50
2021,06,10,01,57,10.40
2021,06,10,01,58,10.40
2021,06,10,01,59,10.40
2021,06,10,02,00,10.40
2021,06,10,02,01,10.30
2021,06,10,02,02,10.30
2021,06,10,02,03,10.30
2021,06,10,02,04,10.30
2021,06,10,02,05,10.30
2021,06,10,02,06,10.30
2021,06,10,02,07,10.20
2021,06,10,02,08,10.20
2021,06,10,02,09,10.20
2021,06,10,02,10,10.10
2021,06,10,02,11,10.10
2021,06,10,02,12,10.10
2021,06,10,02,13,10.10
2021,06,10,02,14,10.10
2021,06,10,02,15,10.10
2021,06,10,02,16,10.10
2021,06,10,02,17,10.00
2021,06,10,02,18,10.00
2021,06,10,02,19,10.00
2021,06,10,02,20,10.00
2021,06,10,02,21,10.00
2021,06,10,02,22,9.90
2021,06,10,02,23,9.90
2021,06,10,02,24,9.90
2021,06,10,02,25,9.90
2021,06,10,02,26,9.90
2021,06,10,02,27,9.90
2021,06,10,02,28,9.80
2021,06,10,02,29,9.80
2021,06,10,02,30,9.80
2021,06,10,02,31,9.80
2021,06,10,02,32,9.80
2021,06,10,02,33,9.80
2021,06,10,02,34,9.80
2021,06,10,02,35,9.80
2021,06,10,02,36,9.80
2021,06,10,02,37,9.80
2021,06,10,02,38,9.80
2021,06,10,02,39,9.70
2021,06,10,02,40,9.70
2021,06,10,02,41,9.70
2021,06,10,02,42,9.70
2021,06,10,02,43,9.70
2021,06,10,02,44,9.70
2021,06,10,02,45,9.70
2021,06,10,02,46,9.70
2021,06,10,02,47,9.70
2021,06,10,02,48,9.80
2021,06,10,02,49,9.80
2021,06,10,02,50,9.80
2021,06,10,02,51,9.80
2021,06,10,02,52,9.80
2021,06,10,02,53,9.80
2021,06,10,02,54,9.80
2021,06,10,02,55,9.80
2021,06,10,02,56,9.80
2021,06,10,02,57,9.80
2021,06,10,02,58,9.90
2021,06,10,02,59,9.90
2021,06,10,03,00,9.90
2021,06,10,03,01,9.90
2021,06,10,03,02,9.90
2021,06,10,03,03,9.90
2021,06,10,03,04,9.90
2021,06,10,03,05,9.90
2021,06,10,03,06,9.90
2021,06,10,03,07,9.90
2021,06,10,03,08,9.90
2021,06,10,03,09,9.90
2021,06,10,03,10,9.90
2021,06,10,03,11,9.90
2021,06,10,03,12,9.90
2021,06,10,03,13,9.90
2021,06,10,03,14,9.90
2021,06,10,03,15,9.90
2021,06,10,03,16,9.90
2021,06,10,03,17,9.90
2021,06,10,03,18,9.90
2021,06,10,03,19,9.90
2021,06,10,03,20,9.90
2021,06,10,03,21,9.90
2021,06,10,03,22,9.80
2021,06,10,03,23,9.80
2021,06,10,03,24,9.80
2021,06,10,03,25,9.80
2021,06,10,03,26,9.80
2021,06,10,03,27,9.80
2021,06,10,03,28,9.80
2021,06,10,03,29,9.80
2021,06,10,03,30,9.80
2021,06,10,03,31,9.80
2021,06,10,03,32,9.70
2021,06,10,03,33,9.70
2021,06,10,03,34,9.70
2021,06,10,03,35,9.70
2021,06,10,03,36,9.70
2021,06,10,03,37,9.70
2021,06,10,03,38,9.70
2021,06,10,03,39,9.70
2021,06,10,03,40,9.60
2021,06,10,03,41,9.60
2021,06,10,03,42,9.60
2021,06,10,03,43,9.60
2021,06,10,03,44,9.60
2021,06,10,03,45,9.60
2021,06,10,03,46,9.60
2021,06,10,03,47,9.60
2021,06,10,03,48,9.60
2021,06,10,03,49,9.50
2021,06,10,03,50,9.50
2021,06,10,03,51,9.50
2021,06,10,03,52,9.50
2021,06,10,03,53,9.50
2021,06,10,03,54,9.40
2021,06,10,03,55,9.40
2021,06,10,03,56,9.40
2021,06,10,03,57,9.40
2021,06,10,03,58,9.40
2021,06,10,03,59,9.40
2021,06,10,04,00,9.30
2021,06,10,04,01,9.30
2021,06,10,04,02,9.30
2021,06,10,04,03,9.30
2021,06,10,04,04,9.30
2021,06,10,04,05,9.30
2021,06,10,04,06,9.20
2021,06,10,04,07,9.20
2021,06,10,04,08,9.20
2021,06,10,04,09,9.20
2021,06,10,04,10,9.10
2021,06,10,04,11,9.10
2021,06,10,04,12,9.10
2021,06,10,04,13,9.00
2021,06,10,04,14,9.00
2021,06,10,04,15,8.90
2021,06,10,04,16,8.90
2021,06,10,04,17,8.90
2021,06,10,04,18,8.90
2021,06,10,04,19,8.80
2021,06,10,04,20,8.80
2021,06,10,04,21,8.80
2021,06,10,04,22,8.80
2021,06,10,04,23,8.70
2021,06,10,04,24,8.70
2021,06,10,04,25,8.70
2021,06,10,04,26,8.60
2021,06,10,04,27,8.60
2021,06,10,04,28,8.60
2021,06,10,04,29,8.50
2021,06,10,04,30,8.50
2021,06,10,04,31,8.50
2021,06,10,04,32,8.40
2021,06,10,04,33,8.40
2021,06,10,04,34,8.40
2021,06,10,04,35,8.40
2021,06,10,04,36,8.40
2021,06,10,04,37,8.30
2021,06,10,04,38,8.30
2021,06,10,04,39,8.30
2021,06,10,04,40,8.30
2021,06,10,04,41,8.20
2021,06,10,04,42,8.20
2021,06,10,04,43,8.20
2021,06,10,04,44,8.20
2021,06,10,04,45,8.20
2021,06,10,04,46,8.20
2021,06,10,04,47,8.10
2021,06,10,04,48,8.10
2021,06,10,04,49,8.10
2021,06,10,04,50,8.10
2021,06,10,04,51,8.10
2021,06,10,04,52,8.00
2021,06,10,04,53,8.00
2021,06,10,04,54,8.00
2021,06,10,04,55,8.00
2021,06,10,04,56,7.90
2021,06,10,04,57,7.90
2021,06,10,04,58,7.90
2021,06,10,04,59,7.90
2021,06,10,05,00,7.80
2021,06,10,05,01,7.80
2021,06,10,05,02,7.80
2021,06,10,05,03,7.80
2021,06,10,05,04,7.70
2021,06,10,05,05,7.70
2021,06,10,05,06,7.70
2021,06,10,05,07,7.70
2021,06,10,05,08,7.70
2021,06,10,05,09,7.70
2021,06,10,05,10,7.60
2021,06,10,05,11,7.60
2021,06,10,05,12,7.60
2021,06,10,05,13,7.60
2021,06,10,05,14,7.60
2021,06,10,05,15,7.50
2021,06,10,05,16,7.50
2021,06,10,05,17,7.50
2021,06,10,05,18,7.50
2021,06,10,05,19,7.40
2021,06,10,05,20,7.40
2021,06,10,05,21,7.40
2021,06,10,05,22,7.40
2021,06,10,05,23,7.40
2021,06,10,05,24,7.40
2021,06,10,05,25,7.40
2021,06,10,05,26,7.40
2021,06,10,05,27,7.30
2021,06,10,05,28,7.30
2021,06,10,05,29,7.30
2021,06,10,05,30,7.30
2021,06,10,05,31,7.30
2021,06,10,05,32,7.30
2021,06,10,05,33,7.30
2021,06,10,05,34,7.30
2021,06,10,05,35,7.30
2021,06,10,05,36,7.30
2021,06,10,05,37,7.30
2021,06,10,05,38,7.30
2021,06,10,05,39,7.30
2021,06,10,05,40,7.30
2021,06,10,05,41,7.30
2021,06,10,05,42,7.30
2021,06,10,05,43,7.30
2021,06,10,05,44,7.30
2021,06,10,05,45,7.30
2021,06,10,05,46,7.30
2021,06,10,05,47,7.30
2021,06,10,05,48,7.30
2021,06,10,05,49,7.30
2021,06,10,05,50,7.30
2021,06,10,05,51,7.30
2021,06,10,05,52,7.30
2021,06,10,05,53,7.30
2021,06,10,05,54,7.30
2021,06,10,05,55,7.30
2021,06,10,05,56,7.30
2021,06,10,05,57,7.40
2021,06,10,05,58,7.40
2021,06,10,05,59,7.40
2021,06,10,06,00,7.50
2021,06,10,06,01,7.50
2021,06,10,06,02,7.60
2021,06,10,06,03,7.60
2021,06,10,06,04,7.70
2021,06,10,06,05,7.70
2021,06,10,06,06,7.80
2021,06,10,06,07,7.80
2021,06,10,06,08,7.90
2021,06,10,06,09,8.00
2021,06,10,06,10,8.00
2021,06,10,06,11,8.10
2021,06,10,06,12,8.10
2021,06,10,06,13,8.20
2021,06,10,06,14,8.20
2021,06,10,06,15,8.30
2021,06,10,06,16,8.30
2021,06,10,06,17,8.40
2021,06,10,06,18,8.50
2021,06,10,06,19,8.60
2021,06,10,06,20,8.70
2021,06,10,06,21,8.80
2021,06,10,06,22,8.90
2021,06,10,06,23,9.10
2021,06,10,06,24,9.20
2021,06,10,06,25,9.30
2021,06,10,06,26,9.30
2021,06,10,06,27,9.40
2021,06,10,06,28,9.50
2021,06,10,06,29,9.50
2021,06,10,06,30,9.60
2021,06,10,06,31,9.60
2021,06,10,06,32,9.60
2021,06,10,06,33,9.60
2021,06,10,06,34,9.70
2021,06,10,06,35,9.70
2021,06,10,06,36,9.70
2021,06,10,06,37,9.70
2021,06,10,06,38,9.80
2021,06,10,06,39,9.80
2021,06,10,06,40,9.80
2021,06,10,06,41,9.80
2021,06,10,06,42,9.90
2021,06,10,06,43,9.90
2021,06,10,06,44,9.90
2021,06,10,06,45,10.00
2021,06,10,06,46,10.00
2021,06,10,06,47,10.10
2021,06,10,06,48,10.10
2021,06,10,06,49,10.10
2021,06,10,06,50,10.20
2021,06,10,06,51,10.20
2021,06,10,06,52,10.30
2021,06,10,06,53,10.30
2021,06,10,06,54,10.40
2021,06,10,06,55,10.40
2021,06,10,06,56,10.40
2021,06,10,06,57,10.40
2021,06,10,06,58,10.50
2021,06,10,06,59,10.60
2021,06,10,07,00,10.60
2021,06,10,07,01,10.70
2021,06,10,07,02,10.70
2021,06,10,07,03,10.80
2021,06,10,07,04,10.80
2021,06,10,07,05,10.90
2021,06,10,07,06,11.00
2021,06,10,07,07,11.00
2021,06,10,07,08,11.10
2021,06,10,07,09,11.10
2021,06,10,07,10,11.10
2021,06,10,07,11,11.10
2021,06,10,07,12,11.10
2021,06,10,07,13,11.10
2021,06,10,07,14,11.10
2021,06,10,07,15,11.10
2021,06,10,07,16,11.10
2021,06,10,07,17,11.10
2021,06,10,07,18,11.00
2021,06,10,07,19,11.10
2021,06,10,07,20,11.10
2021,06,10,07,21,11.20
2021,06,10,07,22,11.20
2021,06,10,07,23,11.20
2021,06,10,07,24,11.30
2021,06,10,07,25,11.30
2021,06,10,07,26,11.30
2021,06,10,07,27,11.30
2021,06,10,07,28,11.30
2021,06,10,07,29,11.30
2021,06,10,07,30,11.30
2021,06,10,07,31,11.30
2021,06,10,07,32,11.30
2021,06,10,07,33,11.30
2021,06,10,07,34,11.40
2021,06,10,07,35,11.50
2021,06,10,07,36,11.60
2021,06,10,07,37,11.60
2021,06,10,07,38,11.60
2021,06,10,07,39,11.60
2021,06,10,07,40,11.70
2021,06,10,07,41,11.70
2021,06,10,07,42,11.70
2021,06,10,07,43,11.60
2021,06,10,07,44,11.60
2021,06,10,07,45,11.60
2021,06,10,07,46,11.60
2021,06,10,07,47,11.60
2021,06,10,07,48,11.60
2021,06,10,07,49,11.70
2021,06,10,07,50,11.70
2021,06,10,07,51,11.70
2021,06,10,07,52,11.80
2021,06,10,07,53,11.80
2021,06,10,07,54,11.80
2021,06,10,07,55,11.90
2021,06,10,07,56,12.00
2021,06,10,07,57,12.10
2021,06,10,07,58,12.20
2021,06,10,07,59,12.20
2021,06,10,08,00,12.20
2021,06,10,08,01,12.30
2021,06,10,08,02,12.30
2021,06,10,08,03,12.40
2021,06,10,08,04,12.40
2021,06,10,08,05,12.50
2021,06,10,08,06,12.50
2021,06,10,08,07,12.50
2021,06,10,08,08,12.50
2021,06,10,08,09,12.60
2021,06,10,08,10,12.60
2021,06,10,08,11,12.60
2021,06,10,08,12,12.60
2021,06,10,08,13,12.60
2021,06,10,08,14,12.60
2021,06,10,08,15,12.60
2021,06,10,08,16,12.60
2021,06,10,08,17,12.60
2021,06,10,08,18,12.60
2021,06,10,08,19,12.60
2021,06,10,08,20,12.60
2021,06,10,08,21,12.70
2021,06,10,08,22,12.70
2021,06,10,08,23,12.70
2021,06,10,08,24,12.70
2021,06,10,08,25,12.80
2021,06,10,08,26,12.80
2021,06,10,08,27,12.90
2021,06,10,08,28,13.00
2021,06,10,08,29,13.10
2021,06,10,08,30,13.10
2021,06,10,08,31,13.20
2021,06,10,08,32,13.20
2021,06,10,08,33,13.30
2021,06,10,08,34,13.30
2021,06,10,08,35,13.30
2021,06,10,08,36,13.30
2021,06,10,08,37,13.30
2021,06,10,08,38,13.40
2021,06,10,08,39,13.40
2021,06,10,08,40,13.40
2021,06,10,08,41,13.40
2021,06,10,08,42,13.30
2021,06,10,08,43,13.30
2021,06,10,08,44,13.40
2021,06,10,08,45,13.40
2021,06,10,08,46,13.40
2021,06,10,08,47,13.40
2021,06,10,08,48,13.40
2021,06,10,08,49,13.40
2021,06,10,08,50,13.50
2021,06,10,08,51,13.50
2021,06,10,08,52,13.50
2021,06,10,08,53,13.60
2021,06,10,08,54,13.60
2021,06,10,08,55,13.60
2021,06,10,08,56,13.60
2021,06,10,08,57,13.70
2021,06,10,08,58,13.70
2021,06,10,08,59,13.80
2021,06,10,09,00,13.80
2021,06,10,09,01,13.80
2021,06,10,09,02,13.80
2021,06,10,09,03,13.80
2021,06,10,09,04,13.70
2021,06,10,09,05,13.70
2021,06,10,09,06,13.80
2021,06,10,09,07,13.80
2021,06,10,09,08,13.80
2021,06,10,09,09,13.90
2021,06,10,09,10,13.90
2021,06,10,09,11,14.00
2021,06,10,09,12,14.10
2021,06,10,09,13,14.10
2021,06,10,09,14,14.10
2021,06,10,09,15,14.20
2021,06,10,09,16,14.20
2021,06,10,09,17,14.20
2021,06,10,09,18,14.20
2021,06,10,09,19,14.20
2021,06,10,09,20,14.20
2021,06,10,09,21,14.30
2021,06,10,09,22,14.30
2021,06,10,09,23,14.30
2021,06,10,09,24,14.30
2021,06,10,09,25,14.40
2021,06,10,09,26,14.40
2021,06,10,09,27,14.40
2021,06,10,09,28,14.40
2021,06,10,09,29,14.50
2021,06,10,09,30,14.50
2021,06,10,09,31,14.50
2021,06,10,09,32,14.50
2021,06,10,09,33,14.50
2021,06,10,09,34,14.50
2021,06,10,09,35,14.50
2021,06,10,09,36,14.60
2021,06,10,09,37,14.60
2021,06,10,09,38,14.70
2021,06,10,09,39,14.70
2021,06,10,09,40,14.80
2021,06,10,09,41,14.80
2021,06,10,09,42,14.80
2021,06,10,09,43,14.80
2021,06,10,09,44,14.90
2021,06,10,09,45,14.80
2021,06,10,09,46,14.90
2021,06,10,09,47,14.90
2021,06,10,09,48,14.80
2021,06,10,09,49,14.70
2021,06,10,09,50,14.80
2021,06,10,09,51,14.80
2021,06,10,09,52,14.80
2021,06,10,09,53,14.80
2021,06,10,09,54,14.80
2021,06,10,09,55,14.80
2021,06,10,09,56,14.90
2021,06,10,09,57,15.00
2021,06,10,09,58,15.00
2021,06,10,09,59,15.10
2021,06,10,10,00,15.10
2021,06,10,10,01,15.10
2021,06,10,10,02,15.10
2021,06,10,10,03,15.00
2021,06,10,10,04,15.00
2021,06,10,10,05,15.00
2021,06,10,10,06,15.00
2021,06,10,10,07,15.00
2021,06,10,10,08,14.90
2021,06,10,10,09,14.90
2021,06,10,10,10,14.90
2021,06,10,10,11,14.90
2021,06,10,10,12,14.90
2021,06,10,10,13,15.00
2021,06,10,10,14,15.00
2021,06,10,10,15,15.10
2021,06,10,10,16,15.10
2021,06,10,10,17,15.20
2021,06,10,10,18,15.20
2021,06,10,10,19,15.20
2021,06,10,10,20,15.20
2021,06,10,10,21,15.20
2021,06,10,10,22,15.20
2021,06,10,10,23,15.30
2021,06,10,10,24,15.30
2021,06,10,10,25,15.30
2021,06,10,10,26,15.30
2021,06,10,10,27,15.30
2021,06,10,10,28,15.30
2021,06,10,10,29,15.30
2021,06,10,10,30,15.30
2021,06,10,10,31,15.30
2021,06,10,10,32,15.20
2021,06,10,10,33,15.30
2021,06,10,10,34,15.30
2021,06,10,10,35,15.40
2021,06,10,10,36,15.40
2021,06,10,10,37,15.40
2021,06,10,10,38,15.40
2021,06,10,10,39,15.40
2021,06,10,10,40,15.50
2021,06,10,10,41,15.50
2021,06,10,10,42,15.60
2021,06,10,10,43,15.50
2021,06,10,10,44,15.50
2021,06,10,10,45,15.60
2021,06,10,10,46,15.60
2021,06,10,10,47,15.60
2021,06,10,10,48,15.60
2021,06,10,10,49,15.50
2021,06,10,10,50,15.50
2021,06,10,10,51,15.50
2021,06,10,10,52,15.50
2021,06,10,10,53,15.40
2021,06,10,10,54,15.40
2021,06,10,10,55,15.50
2021,06,10,10,56,15.60
2021,06,10,10,57,15.70
2021,06,10,10,58,15.90
2021,06,10,10,59,16.00
2021,06,10,11,00,16.10
2021,06,10,11,01,16.20
2021,06,10,11,02,16.30
2021,06,10,11,03,16.40
2021,06,10,11,04,16.40
2021,06,10,11,05,16.40
2021,06,10,11,06,16.40
2021,06,10,11,07,16.50
2021,06,10,11,08,16.60
2021,06,10,11,09,16.60
2021,06,10,11,10,16.60
2021,06,10,11,11,16.60
2021,06,10,11,12,16.60
2021,06,10,11,13,16.60
2021,06,10,11,14,16.60
2021,06,10,11,15,16.60
2021,06,10,11,16,16.50
2021,06,10,11,17,16.50
2021,06,10,11,18,16.40
2021,06,10,11,19,16.40
2021,06,10,11,20,16.30
2021,06,10,11,21,16.30
2021,06,10,11,22,16.40
2021,06,10,11,23,16.40
2021,06,10,11,24,16.50
2021,06,10,11,25,16.50
2021,06,10,11,26,16.40
2021,06,10,11,27,16.40
2021,06,10,11,28,16.30
2021,06,10,11,29,16.20
2021,06,10,11,30,16.20
2021,06,10,11,31,16.10
2021,06,10,11,32,16.10
2021,06,10,11,33,16.10
2021,06,10,11,34,16.10
2021,06,10,11,35,16.10
2021,06,10,11,36,16.10
2021,06,10,11,37,16.00
2021,06,10,11,38,16.00
2021,06,10,11,39,16.10
2021,06,10,11,40,16.20
2021,06,10,11,41,16.20
2021,06,10,11,42,16.40
2021,06,10,11,43,16.50
2021,06,10,11,44,16.60
2021,06,10,11,45,16.70
2021,06,10,11,46,16.70
2021,06,10,11,47,16.70
2021,06,10,11,48,16.70
2021,06,10,11,49,16.80
2021,06,10,11,50,16.80
2021,06,10,11,51,16.80
2021,06,10,11,52,16.80
2021,06,10,11,53,16.80
2021,06,10,11,54,16.80
2021,06,10,11,55,16.80
2021,06,10,11,56,16.70
2021,06,10,11,57,16.60
2021,06,10,11,58,16.50
2021,06,10,11,59,16.40
2021,06,10,12,00,16.40
2021,06,10,12,01,16.40
2021,06,10,12,02,16.40
2021,06,10,12,03,16.40
2021,06,10,12,04,16.40
2021,06,10,12,05,16.50
2021,06,10,12,06,16.50
2021,06,10,12,07,16.60
2021,06,10,12,08,16.70
2021,06,10,12,09,16.70
2021,06,10,12,10,16.80
2021,06,10,12,11,16.90
2021,06,10,12,12,16.90
2021,06,10,12,13,16.90
2021,06,10,12,14,16.80
2021,06,10,12,15,16.60
2021,06,10,12,16,16.30
2021,06,10,12,17,16.00
2021,06,10,12,18,15.70
2021,06,10,12,19,15.50
2021,06,10,12,20,15.30
2021,06,10,12,21,15.10
2021,06,10,12,22,15.00
2021,06,10,12,23,14.90
2021,06,10,12,24,14.80
2021,06,10,12,25,14.70
2021,06,10,12,26,14.70
2021,06,10,12,27,14.70
2021,06,10,12,28,14.70
2021,06,10,12,29,14.80
2021,06,10,12,30,14.80
2021,06,10,12,31,14.90
2021,06,10,12,32,15.00
2021,06,10,12,33,15.00
2021,06,10,12,34,15.10
2021,06,10,12,35,15.10
2021,06,10,12,36,15.10
2021,06,10,12,37,15.10
2021,06,10,12,38,15.20
2021,06,10,12,39,15.20
2021,06,10,12,40,15.20
2021,06,10,12,41,15.20
2021,06,10,12,42,15.10
2021,06,10,12,43,15.10
2021,06,10,12,44,15.20
2021,06,10,12,45,15.20
2021,06,10,12,46,15.20
2021,06,10,12,47,15.20
2021,06,10,12,48,15.20
2021,06,10,12,49,15.20
2021,06,10,12,50,15.20
2021,06,10,12,51,15.30
2021,06,10,12,52,15.30
2021,06,10,12,53,15.30
2021,06,10,12,54,15.30
2021,06,10,12,55,15.30
2021,06,10,12,56,15.30
2021,06,10,12,57,15.20
2021,06,10,12,58,15.10
2021,06,10,12,59,15.10
2021,06,10,13,00,15.10
2021,06,10,13,01,15.10
2021,06,10,13,02,15.20
2021,06,10,13,03,15.30
2021,06,10,13,04,15.30
2021,06,10,13,05,15.40
2021,06,10,13,06,15.40
2021,06,10,13,07,15.40
2021,06,10,13,08,15.50
2021,06,10,13,09,15.60
2021,06,10,13,10,15.60
2021,06,10,13,11,15.50
2021,06,10,13,12,15.50
2021,06,10,13,13,15.50
2021,06,10,13,14,15.50
2021,06,10,13,15,15.40
2021,06,10,13,16,15.40
2021,06,10,13,17,15.30
2021,06,10,13,18,15.30
2021,06,10,13,19,15.20
2021,06,10,13,20,15.20
2021,06,10,13,21,15.10
2021,06,10,13,22,15.10
2021,06,10,13,23,15.00
2021,06,10,13,24,15.00
2021,06,10,13,25,15.00
2021,06,10,13,26,15.00
2021,06,10,13,27,15.10
2021,06,10,13,28,15.20
2021,06,10,13,29,15.30
2021,06,10,13,30,15.30
2021,06,10,13,31,15.30
2021,06,10,13,32,15.30
2021,06,10,13,33,15.30
2021,06,10,13,34,15.30
2021,06,10,13,35,15.20
2021,06,10,13,36,15.20
2021,06,10,13,37,15.20
2021,06,10,13,38,15.20
2021,06,10,13,39,15.20
2021,06,10,13,40,15.30
2021,06,10,13,41,15.40
2021,06,10,13,42,15.60
2021,06,10,13,43,15.60
2021,06,10,13,44,15.60
2021,06,10,13,45,15.60
2021,06,10,13,46,15.50
2021,06,10,13,47,15.40
2021,06,10,13,48,15.30
2021,06,10,13,49,15.20
2021,06,10,13,50,15.20
2021,06,10,13,51,15.20
2021,06,10,13,52,15.20
2021,06,10,13,53,15.20
2021,06,10,13,54,15.20
2021,06,10,13,55,15.20
2021,06,10,13,56,15.10
2021,06,10,13,57,15.10
2021,06,10,13,58,15.10
2021,06,10,13,59,15.20
2021,06,10,14,00,15.20
2021,06,10,14,01,15.30
2021,06,10,14,02,15.30
2021,06,10,14,03,15.30
2021,06,10,14,04,15.20
2021,06,10,14,05,15.20
2021,06,10,14,06,15.20
2021,06,10,14,07,15.30
2021,06,10,14,08,15.30
2021,06,10,14,09,15.40
2021,06,10,14,10,15.40
2021,06,10,14,11,15.40
2021,06,10,14,12,15.40
2021,06,10,14,13,15.40
2021,06,10,14,14,15.40
2021,06,10,14,15,15.50
2021,06,10,14,16,15.50
2021,06,10,14,17,15.50
2021,06,10,14,18,15.50
2021,06,10,14,19,15.60
2021,06,10,14,20,15.60
2021,06,10,14,21,15.60
2021,06,10,14,22,15.60
2021,06,10,14,23,15.60
2021,06,10,14,24,15.50
2021,06,10,14,25,15.50
2021,06,10,14,26,15.40
2021,06,10,14,27,15.30
2021,06,10,14,28,15.30
2021,06,10,14,29,15.20
2021,06,10,14,30,15.20
2021,06,10,14,31,15.10
2021,06,10,14,32,15.10
2021,06,10,14,33,15.10
2021,06,10,14,34,15.10
2021,06,10,14,35,15.10
2021,06,10,14,36,15.10
2021,06,10,14,37,15.10
2021,06,10,14,38,15.10
2021,06,10,14,39,15.10
2021,06,10,14,40,15.10
2021,06,10,14,41,15.10
2021,06,10,14,42,15.10
2021,06,10,14,43,15.10
2021,06,10,14,44,15.20
2021,06,10,14,45,15.20
2021,06,10,14,46,15.20
2021,06,10,14,47,15.20
2021,06,10,14,48,15.30
2021,06,10,14,49,15.30
2021,06,10,14,50,15.30
2021,06,10,14,51,15.30
2021,06,10,14,52,15.30
2021,06,10,14,53,15.30
2021,06,10,14,54,15.30
2021,06,10,14,55,15.40
2021,06,10,14,56,15.40
2021,06,10,14,57,15.40
2021,06,10,14,58,15.50
2021,06,10,14,59,15.50
2021,06,10,15,00,15.60
2021,06,10,15,01,15.60
2021,06,10,15,02,15.60
2021,06,10,15,03,15.70
2021,06,10,15,04,15.70
2021,06,10,15,05,15.80
2021,06,10,15,06,15.80
2021,06,10,15,07,15.80
2021,06,10,15,08,15.80
2021,06,10,15,09,15.80
2021,06,10,15,10,15.80
2021,06,10,15,11,15.80
2021,06,10,15,12,15.70
2021,06,10,15,13,15.70
2021,06,10,15,14,15.80
2021,06,10,15,15,15.80
2021,06,10,15,16,15.80
2021,06,10,15,17,15.90
2021,06,10,15,18,16.00
2021,06,10,15,19,16.00
2021,06,10,15,20,16.00
2021,06,10,15,21,16.00
2021,06,10,15,22,16.00
2021,06,10,15,23,15.90
2021,06,10,15,24,15.80
2021,06,10,15,25,15.80
2021,06,10,15,26,15.70
2021,06,10,15,27,15.60
2021,06,10,15,28,15.50
2021,06,10,15,29,15.50
2021,06,10,15,30,15.50
2021,06,10,15,31,15.50
2021,06,10,15,32,15.50
2021,06,10,15,33,15.50
2021,06,10,15,34,15.50
2021,06,10,15,35,15.60
2021,06,10,15,36,15.50
2021,06,10,15,37,15.50
2021,06,10,15,38,15.60
2021,06,10,15,39,15.60
2021,06,10,15,40,15.70
2021,06,10,15,41,15.70
2021,06,10,15,42,15.70
2021,06,10,15,43,15.50
2021,06,10,15,44,15.50
2021,06,10,15,45,15.40
2021,06,10,15,46,15.40
2021,06,10,15,47,15.50
2021,06,10,15,48,15.50
2021,06,10,15,49,15.50
2021,06,10,15,50,15.50
2021,06,10,15,51,15.50
2021,06,10,15,52,15.50
2021,06,10,15,53,15.50
2021,06,10,15,54,15.60
2021,06,10,15,55,15.60
2021,06,10,15,56,15.60
2021,06,10,15,57,15.50
2021,06,10,15,58,15.60
2021,06,10,15,59,15.50
2021,06,10,16,00,15.60
2021,06,10,16,01,15.60
2021,06,10,16,02,15.60
2021,06,10,16,03,15.60
2021,06,10,16,04,15.60
2021,06,10,16,05,15.70
2021,06,10,16,06,15.70
2021,06,10,16,07,15.80
2021,06,10,16,08,15.90
2021,06,10,16,09,15.90
2021,06,10,16,10,15.90
2021,06,10,16,11,15.90
2021,06,10,16,12,15.90
2021,06,10,16,13,15.90
2021,06,10,16,14,15.90
2021,06,10,16,15,15.90
2021,06,10,16,16,15.90
2021,06,10,16,17,15.90
2021,06,10,16,18,15.90
2021,06,10,16,19,15.80
2021,06,10,16,20,15.80
2021,06,10,16,21,15.80
2021,06,10,16,22,15.80
2021,06,10,16,23,15.70
2021,06,10,16,24,15.70
2021,06,10,16,25,15.60
2021,06,10,16,26,15.60
2021,06,10,16,27,15.50
2021,06,10,16,28,15.40
2021,06,10,16,29,15.30
2021,06,10,16,30,15.30
2021,06,10,16,31,15.20
2021,06,10,16,32,15.10
2021,06,10,16,33,15.00
2021,06,10,16,34,14.90
2021,06,10,16,35,14.90
2021,06,10,16,36,14.90
2021,06,10,16,37,14.90
2021,06,10,16,38,14.90
2021,06,10,16,39,14.90
2021,06,10,16,40,15.00
2021,06,10,16,41,15.00
2021,06,10,16,42,15.00
2021,06,10,16,43,15.00
2021,06,10,16,44,15.10
2021,06,10,16,45,15.10
2021,06,10,16,46,15.10
2021,06,10,16,47,15.10
2021,06,10,16,48,15.20
2021,06,10,16,49,15.20
2021,06,10,16,50,15.30
2021,06,10,16,51,15.30
2021,06,10,16,52,15.40
2021,06,10,16,53,15.40
2021,06,10,16,54,15.40
2021,06,10,16,55,15.40
2021,06,10,16,56,15.40
2021,06,10,16,57,15.40
2021,06,10,16,58,15.40
2021,06,10,16,59,15.40
2021,06,10,17,00,15.40
2021,06,10,17,01,15.40
2021,06,10,17,02,15.40
2021,06,10,17,03,15.30
2021,06,10,17,04,15.30
2021,06,10,17,05,15.30
2021,06,10,17,06,15.30
2021,06,10,17,07,15.30
2021,06,10,17,08,15.30
2021,06,10,17,09,15.30
2021,06,10,17,10,15.20
2021,06,10,17,11,15.20
2021,06,10,17,12,15.20
2021,06,10,17,13,15.10
2021,06,10,17,14,15.10
2021,06,10,17,15,15.10
2021,06,10,17,16,15.10
2021,06,10,17,17,15.10
2021,06,10,17,18,15.00
2021,06,10,17,19,15.00
2021,06,10,17,20,14.90
2021,06,10,17,21,14.90
2021,06,10,17,22,15.00
2021,06,10,17,23,15.10
2021,06,10,17,24,15.20
2021,06,10,17,25,15.30
2021,06,10,17,26,15.30
2021,06,10,17,27,15.40
2021,06,10,17,28,15.40
2021,06,10,17,29,15.50
2021,06,10,17,30,15.50